When you browse on this site, cookies collect data to enhance your experience and personalize the content and advertising you see.
Visit our Privacy Policy to learn more. By continuing to use the site, you agree to this use of cookies and data.
  • In Lithuania
  • List of Countries
  • For 7 days
  • Water Temperature
  • Satellite Maps
  • Weather Map
  • Weather Widgets
  • user-avatar
    Login

    Hourly Weather Sokrutovka

    Today, 18 March, Monday

    Time Temperature Precipitation Wind Pressure Humidity
    00:00 +4°C° 0 mm 2 mps 764 mmHg 80%
    01:00 +4°C° 0 mm 2 mps 764 mmHg 82%
    02:00 +2°C° 0 mm 3 mps 764 mmHg 83%
    03:00 +2°C° 0 mm 3 mps 764 mmHg 86%
    04:00 +1°C° 0 mm 3 mps 765 mmHg 87%
    05:00 +1°C° 0 mm 3 mps 765 mmHg 88%
    06:00 +1°C° 0 mm 3 mps 766 mmHg 88%
    07:00 +1°C° 0 mm 3 mps 766 mmHg 83%
    08:00 +2°C° 0 mm 3 mps 767 mmHg 77%
    09:00 +3°C° 0 mm 4 mps 767 mmHg 73%
    10:00 +4°C° 0 mm 4 mps 767 mmHg 68%
    11:00 +5°C° 0 mm 4 mps 767 mmHg 63%
    12:00 +6°C° 0 mm 5 mps 767 mmHg 58%
    13:00 +7°C° 0 mm 5 mps 767 mmHg 57%
    14:00 +7°C° 0 mm 5 mps 768 mmHg 55%
    15:00 +8°C° 0 mm 5 mps 768 mmHg 55%
    16:00 +7°C° 0 mm 5 mps 768 mmHg 59%
    17:00 +6°C° 0 mm 5 mps 769 mmHg 62%
    18:00 +5°C° 0 mm 5 mps 769 mmHg 66%
    19:00 +3°C° 0 mm 5 mps 769 mmHg 69%
    20:00 +2°C° 0 mm 5 mps 770 mmHg 73%
    21:00 +1°C° 0 mm 4 mps 770 mmHg 76%
    22:00 +1°C° 0 mm 4 mps 770 mmHg 78%
    23:00 0°C° 0 mm 4 mps 770 mmHg 79%

    Tomorrow, 19 March, Tuesday

    Time Temperature Precipitation Wind Pressure Humidity
    00:00 0°C° 0 mm 3 mps 771 mmHg 81%
    01:00 0°C° 0 mm 3 mps 771 mmHg 82%
    02:00 -1°C° 0 mm 3 mps 771 mmHg 83%
    03:00 -1°C° 0 mm 3 mps 771 mmHg 84%
    04:00 -1°C° 0 mm 3 mps 771 mmHg 84%
    05:00 -1°C° 0 mm 3 mps 772 mmHg 84%
    06:00 -2°C° 0 mm 3 mps 772 mmHg 85%
    07:00 -1°C° 0 mm 4 mps 772 mmHg 79%
    08:00 0°C° 0 mm 4 mps 772 mmHg 73%
    09:00 +1°C° 0 mm 4 mps 772 mmHg 67%
    10:00 +3°C° 0 mm 4 mps 772 mmHg 62%
    11:00 +5°C° 0 mm 4 mps 772 mmHg 57%
    12:00 +6°C° 0 mm 4 mps 772 mmHg 52%
    13:00 +7°C° 0 mm 4 mps 772 mmHg 50%
    14:00 +7°C° 0 mm 4 mps 771 mmHg 48%
    15:00 +8°C° 0 mm 4 mps 771 mmHg 46%
    16:00 +7°C° 0 mm 4 mps 771 mmHg 49%
    17:00 +7°C° 0 mm 4 mps 771 mmHg 52%
    18:00 +6°C° 0 mm 4 mps 771 mmHg 56%
    19:00 +5°C° 0 mm 4 mps 771 mmHg 59%
    20:00 +4°C° 0 mm 4 mps 772 mmHg 63%
    21:00 +3°C° 0 mm 4 mps 772 mmHg 67%
    22:00 +1°C° 0 mm 4 mps 772 mmHg 69%
    23:00 0°C° 0 mm 4 mps 772 mmHg 72%

    Day after tomorrow, 20 March, Wednesday

    Time Temperature Precipitation Wind Pressure Humidity
    00:00 +1°C° 0 mm 3 mps 772 mmHg 74%
    01:00 0°C° 0 mm 3 mps 772 mmHg 76%
    02:00 0°C° 0 mm 3 mps 772 mmHg 77%
    03:00 -1°C° 0 mm 3 mps 772 mmHg 79%
    04:00 -1°C° 0 mm 3 mps 771 mmHg 79%
    05:00 -1°C° 0 mm 2 mps 771 mmHg 80%
    06:00 -2°C° 0 mm 2 mps 771 mmHg 80%
    07:00 +1°C° 0 mm 2 mps 771 mmHg 73%
    08:00 +2°C° 0 mm 2 mps 771 mmHg 66%
    09:00 +2°C° 0 mm 3 mps 771 mmHg 59%
    10:00 +4°C° 0 mm 3 mps 771 mmHg 53%
    11:00 +5°C° 0 mm 3 mps 771 mmHg 48%
    12:00 +8°C° 0 mm 3 mps 770 mmHg 42%
    13:00 +9°C° 0 mm 3 mps 770 mmHg 40%
    14:00 +9°C° 0 mm 3 mps 769 mmHg 38%
    15:00 +10°C° 0 mm 3 mps 769 mmHg 36%
    16:00 +10°C° 0 mm 3 mps 769 mmHg 39%
    17:00 +9°C° 0 mm 3 mps 769 mmHg 42%
    18:00 +8°C° 0 mm 3 mps 769 mmHg 45%
    19:00 +7°C° 0 mm 2 mps 769 mmHg 48%
    20:00 +6°C° 0 mm 2 mps 769 mmHg 52%
    21:00 +5°C° 0 mm 2 mps 769 mmHg 55%
    22:00 +5°C° 0 mm 2 mps 769 mmHg 58%
    23:00 +4°C° 0 mm 2 mps 769 mmHg 61%

    21 March, Thursday

    Time Temperature Precipitation Wind Pressure Humidity
    00:00 +4°C° 0 mm 1 mps 769 mmHg 63%
    01:00 +4°C° 0 mm 1 mps 769 mmHg 65%
    02:00 +3°C° 0 mm 1 mps 768 mmHg 67%
    03:00 +2°C° 0 mm 0 mps 768 mmHg 70%
    04:00 +2°C° 0 mm 0 mps 768 mmHg 70%
    05:00 +1°C° 0 mm 0 mps 768 mmHg 70%
    06:00 +1°C° 0 mm 0 mps 767 mmHg 71%
    07:00 +4°C° 0 mm 1 mps 767 mmHg 63%
    08:00 +6°C° 0 mm 1 mps 767 mmHg 55%
    09:00 +8°C° 0 mm 1 mps 767 mmHg 47%
    10:00 +9°C° 0 mm 1 mps 767 mmHg 44%
    11:00 +10°C° 0 mm 1 mps 766 mmHg 41%
    12:00 +12°C° 0 mm 1 mps 766 mmHg 39%
    13:00 +12°C° 0 mm 2 mps 766 mmHg 37%
    14:00 +13°C° 0 mm 2 mps 765 mmHg 35%
    15:00 +14°C° 0 mm 2 mps 765 mmHg 33%
    16:00 +13°C° 0 mm 2 mps 765 mmHg 36%
    17:00 +12°C° 0 mm 2 mps 764 mmHg 38%
    18:00 +12°C° 0 mm 2 mps 764 mmHg 41%
    19:00 +10°C° 0 mm 2 mps 764 mmHg 43%
    20:00 +9°C° 0 mm 2 mps 764 mmHg 45%
    21:00 +9°C° 0 mm 2 mps 764 mmHg 47%
    22:00 +8°C° 0 mm 2 mps 764 mmHg 51%
    23:00 +8°C° 0 mm 2 mps 764 mmHg 54%

    22 March, Friday

    Time Temperature Precipitation Wind Pressure Humidity
    00:00 +8°C° 0 mm 2 mps 763 mmHg 58%
    01:00 +7°C° 0 mm 2 mps 763 mmHg 63%
    02:00 +6°C° 0 mm 2 mps 763 mmHg 68%
    03:00 +6°C° 0 mm 2 mps 763 mmHg 74%
    04:00 +5°C° 0.2 mm 2 mps 763 mmHg 77%
    05:00 +5°C° 0.2 mm 2 mps 763 mmHg 81%
    06:00 +5°C° 0.2 mm 2 mps 763 mmHg 85%
    07:00 +4°C° 0 mm 3 mps 763 mmHg 83%
    08:00 +5°C° 0 mm 3 mps 763 mmHg 80%
    09:00 +5°C° 0 mm 3 mps 763 mmHg 78%
    10:00 +7°C° 0 mm 3 mps 763 mmHg 72%
    11:00 +8°C° 0 mm 3 mps 763 mmHg 67%
    12:00 +8°C° 0 mm 3 mps 763 mmHg 61%
    13:00 +9°C° 0 mm 3 mps 763 mmHg 59%
    14:00 +9°C° 0 mm 3 mps 763 mmHg 57%
    15:00 +9°C° 0 mm 3 mps 763 mmHg 55%
    16:00 +9°C° 0 mm 3 mps 763 mmHg 58%
    17:00 +8°C° 0 mm 3 mps 764 mmHg 61%
    18:00 +6°C° 0 mm 4 mps 764 mmHg 64%
    19:00 +5°C° 0 mm 4 mps 765 mmHg 68%
    20:00 +4°C° 0 mm 4 mps 765 mmHg 72%
    21:00 +2°C° 0 mm 5 mps 766 mmHg 76%
    22:00 +3°C° 0 mm 4 mps 766 mmHg 78%
    23:00 +1°C° 0 mm 4 mps 766 mmHg 80%

    23 March, Saturday

    Time Temperature Precipitation Wind Pressure Humidity
    00:00 +1°C° 0 mm 3 mps 766 mmHg 82%
    01:00 +1°C° 0 mm 3 mps 766 mmHg 83%
    02:00 +1°C° 0 mm 3 mps 766 mmHg 83%
    03:00 0°C° 0 mm 3 mps 766 mmHg 84%
    04:00 0°C° 0 mm 3 mps 766 mmHg 83%
    05:00 0°C° 0 mm 3 mps 766 mmHg 82%
    06:00 -1°C° 0 mm 3 mps 766 mmHg 82%
    07:00 +1°C° 0 mm 3 mps 766 mmHg 73%
    08:00 +2°C° 0 mm 3 mps 766 mmHg 64%
    09:00 +4°C° 0 mm 3 mps 766 mmHg 55%
    10:00 +5°C° 0 mm 4 mps 766 mmHg 52%
    11:00 +7°C° 0 mm 5 mps 765 mmHg 50%
    12:00 +8°C° 0 mm 5 mps 765 mmHg 48%
    13:00 +9°C° 0 mm 6 mps 764 mmHg 47%
    14:00 +9°C° 0 mm 7 mps 763 mmHg 46%
    15:00 +9°C° 0 mm 7 mps 762 mmHg 44%
    16:00 +9°C° 0 mm 7 mps 762 mmHg 46%
    17:00 +8°C° 0 mm 6 mps 761 mmHg 49%
    18:00 +8°C° 0 mm 6 mps 761 mmHg 51%
    19:00 +7°C° 0.1 mm 6 mps 760 mmHg 54%
    20:00 +6°C° 0.1 mm 7 mps 759 mmHg 57%
    21:00 +5°C° 0.1 mm 7 mps 759 mmHg 60%
    22:00 +5°C° 0.9 mm 7 mps 758 mmHg 67%
    23:00 +5°C° 0.9 mm 7 mps 757 mmHg 75%
    Show more